Location: Hiram
(41.3130°N, 81.1440°W)
Time: 21:44:35
(UTC-04:00)

Amateur Radio Satellites - All Passes

Search period start: 26 June 2017 21:14
Search period end: 27 June 2017 21:14
Location: Hiram, 41.3130°N, 81.1440°W

Satellite Date Start Highest point End Downlink Frequencies (MHz)
Time Altitude Azimuth
SEEDS 26 Jun 21:15:36 21:18:44 20° 266° (W) 21:21:53 437.485
PCSat 26 Jun 21:23:23 21:28:42 52° 56° (ENE) 21:33:59 145.827
DELFI C3 26 Jun 21:41:46 21:45:17 33° 71° (ENE) 21:48:49 145.870
AO-85 26 Jun 21:43:33 21:47:24 42° 307° (NW) 21:51:10 145.980
AO-73 26 Jun 21:45:37 21:49:56 43° 262° (W) 21:54:19 145.935
HO-68 26 Jun 21:46:45 21:50:52 16° 271° (W) 21:55:01 435.675
BEESAT 2 26 Jun 21:59:03 22:02:56 57° 119° (ESE) 22:06:54 435.950
CUBEBUG 2 26 Jun 22:03:05 22:03:31 10° 273° (W) 22:03:57 437.445
STRAND 1 26 Jun 22:03:53 22:08:04 26° 295° (WNW) 22:12:14 437.568
AAUSAT CUBESAT 2 26 Jun 22:04:10 22:06:00 13° 269° (W) 22:07:50 437.432
Oscar 11 26 Jun 22:12:00 22:15:43 28° 264° (W) 22:19:28 .
NO-84 26 Jun 22:13:53 22:17:44 81° 136° (SE) 22:21:55 435.350 FM
FO-29 26 Jun 22:19:19 22:26:20 34° 93° (E) 22:33:10 435.910
EO-88 26 Jun 22:21:00 22:24:38 66° 76° (ENE) 22:28:18 145.990 - 145.960
ZACube-1 26 Jun 22:23:10 22:26:06 17° 269° (W) 22:29:03 437.345
YUBILEINY 26 Jun 22:32:05 22:40:46 69° 93° (E) 22:49:31 435.215
BEESAT 3 26 Jun 22:35:31 22:38:45 23° 313° (NW) 22:42:02 437.485
TIGRISAT 26 Jun 22:39:24 22:43:05 23° 94° (E) 22:46:41 435.000
O/OREOS (USA 219) 26 Jun 22:40:04 22:44:28 49° 296° (WNW) 22:48:53 437.305
RS-15 26 Jun 22:40:27 22:52:35 67° 308° (NW) 23:04:57 29.354- 29.394
LO-87 26 Jun 22:41:09 22:43:04 14° 66° (ENE) 22:45:00 145.935 - 145.965
SO-50 26 Jun 22:58:51 23:03:05 38° 50° (NE) 23:07:19 436.795
ESTCUBE 1 26 Jun 23:07:20 23:10:46 22° 66° (ENE) 23:14:13 437.505/2401.250
PCSat 26 Jun 23:07:37 23:11:41 22° 254° (WSW) 23:15:45 145.827
M-CUBED/EXP-1 PRIME 26 Jun 23:16:04 23:19:51 83° 107° (ESE) 23:23:55 437.505
DELFI C3 26 Jun 23:17:29 23:20:08 17° 267° (W) 23:22:48 145.870
UNISAT 6 26 Jun 23:21:14 23:25:54 70° 102° (ESE) 23:30:26 437.425
BEESAT 2 26 Jun 23:38:25 23:41:02 17° 317° (NW) 23:43:41 435.950
PRISM 26 Jun 23:42:22 23:46:28 67° 285° (WNW) 23:50:32 437.425
NO-84 26 Jun 23:52:32 23:55:47 22° 337° (NNW) 23:59:12 435.350 FM
FO-29 27 Jun 00:03:56 00:11:29 54° 291° (WNW) 00:18:57 435.910
QB50P2 27 Jun 00:05:27 00:07:26 13° 91° (E) 00:09:23 145.880/145.840
LO-87 27 Jun 00:12:54 00:16:10 35° 262° (W) 00:19:30 145.935 - 145.965
TIGRISAT 27 Jun 00:15:36 00:19:49 35° 290° (WNW) 00:23:57 435.000
EO-79 27 Jun 00:28:20 00:31:38 21° 94° (E) 00:34:54 145.935-145.965
YUBILEINY 27 Jun 00:31:11 00:38:18 27° 294° (WNW) 00:45:30 435.215
VELOX 1 27 Jun 00:38:12 00:42:23 47° 72° (ENE) 00:46:36 145.980
SO-50 27 Jun 00:39:41 00:43:20 25° 247° (WSW) 00:47:02 436.795
DUCHIFAT 1 27 Jun 00:40:29 00:43:55 23° 95° (E) 00:47:18 145.980
ESTCUBE 1 27 Jun 00:43:12 00:47:21 36° 263° (W) 00:51:30 437.505/2401.250
SPROUT 27 Jun 00:48:10 00:52:24 66° 75° (ENE) 00:56:40 437.525
NANOSAT C BR1 27 Jun 00:49:29 00:53:21 33° 97° (E) 00:57:11 145.865
DX 1 27 Jun 00:53:55 00:57:21 24° 67° (ENE) 01:00:48 434.975-435.025
RS-15 27 Jun 00:57:54 01:08:03 28° 337° (NNW) 01:18:12 29.354- 29.394
UNISAT 6 27 Jun 00:59:49 01:01:58 13° 299° (WNW) 01:04:05 437.425
AIST 2D 27 Jun 01:06:18 01:09:42 50° 285° (WNW) 01:13:04 435.315
UKube-1 27 Jun 01:08:06 01:11:27 23° 67° (ENE) 01:14:49 .
50 SAT 27 Jun 01:20:49 01:24:08 64° 75° (ENE) 01:27:29 437.505
POLYITAN 1 27 Jun 01:28:20 01:32:38 80° 285° (WNW) 01:36:52 437.675
NO-84 27 Jun 01:32:40 01:34:43 13° 358° (N) 01:36:47 435.350 FM
QB50P2 27 Jun 01:39:21 01:43:32 54° 287° (WNW) 01:47:41 145.880/145.840
BUGSAT 1 27 Jun 01:44:14 01:48:10 35° 98° (E) 01:52:02 437.445
FO-29 27 Jun 01:52:21 01:54:48 12° 310° (NW) 01:57:16 435.910
EO-79 27 Jun 02:03:37 02:07:26 32° 290° (WNW) 02:11:13 145.935-145.965
DUCHIFAT 1 27 Jun 02:15:52 02:19:33 29° 291° (WNW) 02:23:14 145.980
VELOX 1 27 Jun 02:16:28 02:19:05 15° 268° (W) 02:21:42 145.980
NANOSAT C BR1 27 Jun 02:25:36 02:28:51 22° 293° (WNW) 02:32:05 145.865
SPROUT 27 Jun 02:27:49 02:28:43 11° 271° (W) 02:29:38 437.525
Gurwin Techsat 1B 27 Jun 02:28:19 02:32:40 25° 94° (E) 02:37:00 435.225
MOZHAYETS 4 27 Jun 02:29:21 02:30:21 11° 60° (ENE) 02:31:22
DX 1 27 Jun 02:29:32 02:33:22 31° 263° (W) 02:37:14 434.975-435.025
UKube-1 27 Jun 02:43:27 02:47:17 32° 262° (W) 02:51:10 .
ITUPSAT 1 27 Jun 02:59:28 03:03:48 34° 68° (ENE) 03:08:09 437.325
Oscar 19 27 Jun 03:01:31 03:06:41 82° 105° (ESE) 03:11:48 437.125/150
BEESAT 27 Jun 03:08:11 03:12:41 43° 71° (ENE) 03:17:13 436.000
NO-84 27 Jun 03:10:39 03:13:44 18° 19° (NNE) 03:16:50 435.350 FM
RS-15 27 Jun 03:16:42 03:26:15 25° 13° (NNE) 03:35:34 29.354- 29.394
BUGSAT 1 27 Jun 03:20:08 03:23:16 20° 294° (WNW) 03:26:21 437.445
AO-7 27 Jun 03:21:55 03:26:19 15° 89° (E) 03:30:43 .
ITAMSAT 1 27 Jun 03:43:52 03:46:59 16° 91° (E) 03:50:05 435.822/435.867
MOZHAYETS 4 27 Jun 04:02:09 04:06:48 87° 259° (W) 04:11:28
Gurwin Techsat 1B 27 Jun 04:07:46 04:12:44 41° 291° (WNW) 04:17:41 435.225
AO-85 27 Jun 04:34:23 04:37:14 18° 45° (NE) 04:40:11 145.980
ITUPSAT 1 27 Jun 04:37:41 04:41:39 25° 265° (W) 04:45:38 437.325
Oscar 19 27 Jun 04:42:56 04:45:17 13° 301° (WNW) 04:47:37 437.125/150
BEESAT 27 Jun 04:47:06 04:50:38 20° 266° (W) 04:54:11 436.000
CUBESAT XI-V 27 Jun 04:47:34 04:52:03 52° 73° (ENE) 04:56:33 437.345
NO-84 27 Jun 04:47:44 04:52:05 60° 38° (NE) 04:56:20 435.350 FM
AO-7 27 Jun 05:11:50 05:20:17 80° 108° (ESE) 05:28:39 .
BEESAT 3 27 Jun 05:14:14 05:17:29 23° 47° (NE) 05:20:41 437.485
ITAMSAT 1 27 Jun 05:21:41 05:26:52 63° 288° (WNW) 05:32:01 435.822/435.867
KKS-1 27 Jun 05:24:05 05:28:31 90° 118° (ESE) 05:33:00 437.445
RS-15 27 Jun 05:30:44 05:42:38 52° 45° (NE) 05:53:53 29.354- 29.394
STARS 27 Jun 05:49:09 05:53:30 71° 74° (ENE) 05:57:54 437.465
DOVE 4 27 Jun 05:58:28 06:01:54 18° 92° (E) 06:05:23 437.250
AO-85 27 Jun 06:13:50 06:17:52 53° 241° (WSW) 06:22:11 145.980
BEESAT 2 27 Jun 06:16:41 06:20:27 34° 51° (NE) 06:24:09 435.950
NO-84 27 Jun 06:26:05 06:29:20 21° 235° (SW) 06:32:30 435.350 FM
CUBESAT XI-V 27 Jun 06:26:58 06:29:42 15° 269° (W) 06:32:28 437.345
XW-2C 27 Jun 06:33:21 06:35:09 13° 91° (E) 06:36:58 145.795 - 145.815
CUTE-I 27 Jun 06:38:14 06:41:46 18° 92° (E) 06:45:17 437.470
KAITUO 1B 27 Jun 06:43:15 06:45:01 13° 91° (E) 06:46:46 145.475/437.950
BEESAT 3 27 Jun 06:51:28 06:55:08 35° 245° (WSW) 06:58:44 437.485
AO-7 27 Jun 07:05:45 07:12:10 25° 307° (NW) 07:18:35 .
O/OREOS (USA 219) 27 Jun 07:10:57 07:14:56 31° 60° (ENE) 07:18:55 437.305
NUDT-PHONESAT 27 Jun 07:15:09 07:18:29 31° 97° (E) 07:21:47 437.300
HO-68 27 Jun 07:24:44 07:29:00 16° 89° (E) 07:33:14 435.675
STARS 27 Jun 07:29:42 07:30:18 10° 270° (W) 07:30:56 437.465
DOVE 4 27 Jun 07:34:58 07:39:46 53° 287° (WNW) 07:44:48 437.250
XW-2F 27 Jun 07:35:55 07:39:40 78° 102° (ESE) 07:43:23 145.980 - 146.000
STRAND 1 27 Jun 07:39:58 07:44:59 57° 72° (ENE) 07:50:03 437.568
XW-2D 27 Jun 07:41:10 07:44:56 82° 283° (WNW) 07:48:41 145.860 - 145.880
RS-15 27 Jun 07:43:42 07:55:10 53° 249° (WSW) 08:06:05 29.354- 29.394
CUTE 1.7 + AOD 2 27 Jun 07:44:35 07:46:58 15° 91° (E) 07:49:19 437.475
XW-2B 27 Jun 07:50:15 07:54:00 65° 284° (WNW) 07:57:42 145.730 - 145.750
LilacSat-2 27 Jun 07:51:41 07:55:25 58° 285° (WNW) 07:59:05 437.200
BEESAT 2 27 Jun 07:54:51 07:58:00 22° 248° (WSW) 08:01:06 435.950
Tancredo 1 27 Jun 07:55:38 07:58:29 40° 139° (SE) 08:01:21 437.200
XW-2C 27 Jun 08:06:00 08:09:32 40° 288° (WNW) 08:13:03 145.795 - 145.815
CUBEBUG 2 27 Jun 08:13:42 08:16:52 18° 91° (E) 08:19:58 437.445
KAITUO 1B 27 Jun 08:15:44 08:19:12 39° 287° (WNW) 08:22:39 145.475/437.950
CUTE-I 27 Jun 08:16:54 08:22:12 60° 288° (WNW) 08:27:28 437.470
FO-29 27 Jun 08:34:33 08:37:45 14° 52° (NE) 08:41:07 435.910
ISS 27 Jun 08:35:42 08:38:52 51° 140° (SE) 08:42:04 437.550
YUBILEINY 27 Jun 08:42:38 08:50:29 34° 70° (ENE) 08:58:14 435.215
UWE-3 27 Jun 08:43:20 08:46:49 21° 93° (E) 08:50:13 435.000/436.395/437.385
NUDT-PHONESAT 27 Jun 08:49:44 08:52:08 17° 293° (WNW) 08:54:30 437.300
O/OREOS (USA 219) 27 Jun 08:50:33 08:54:12 25° 257° (WSW) 08:57:50 437.305
SEEDS 27 Jun 08:57:52 09:02:01 64° 101° (E) 09:06:07 437.485
XW-2A 27 Jun 09:10:04 09:13:28 67° 284° (WNW) 09:16:48 145.665 - 145.685
HO-68 27 Jun 09:10:20 09:17:33 87° 287° (WNW) 09:24:43 435.675
CUTE 1.7 + AOD 2 27 Jun 09:19:01 09:23:02 45° 287° (WNW) 09:27:01 437.475
STRAND 1 27 Jun 09:21:13 09:24:31 17° 269° (W) 09:27:50 437.568
Tancredo 1 27 Jun 09:31:32 09:34:09 25° 336° (NNW) 09:36:45 437.200
AO-73 27 Jun 09:33:36 09:37:40 36° 97° (E) 09:41:38 145.935
TIGRISAT 27 Jun 09:38:02 09:41:30 21° 66° (ENE) 09:45:01 435.000
AAUSAT CUBESAT 2 27 Jun 09:43:18 09:47:25 83° 283° (WNW) 09:51:32 437.432
CUBEBUG 2 27 Jun 09:49:12 09:53:43 46° 288° (WNW) 09:58:05 437.445
Oscar 11 27 Jun 09:58:20 10:02:33 51° 100° (E) 10:06:44 .
M-CUBED/EXP-1 PRIME 27 Jun 10:02:39 10:05:55 75° 251° (WSW) 10:09:11 437.505
ZACube-1 27 Jun 10:09:33 10:14:01 80° 284° (WNW) 10:18:20 437.345
ISS 27 Jun 10:12:43 10:15:31 25° 337° (NNW) 10:18:20 437.550
FO-29 27 Jun 10:15:19 10:21:24 76° 73° (ENE) 10:28:23 435.910
UWE-3 27 Jun 10:19:10 10:23:22 36° 290° (WNW) 10:27:27 435.000/436.395/437.385
UNISAT 6 27 Jun 10:19:25 10:23:57 60° 74° (ENE) 10:28:35 437.425
PRISM 27 Jun 10:31:10 10:35:13 84° 77° (ENE) 10:39:17 437.425
SEEDS 27 Jun 10:35:43 10:37:09 12° 297° (WNW) 10:38:34 437.485
YUBILEINY 27 Jun 10:39:07 10:47:37 54° 270° (W) 10:56:02 435.215
DELFI C3 27 Jun 10:52:44 10:56:37 54° 100° (E) 11:00:28 145.870
QB50P2 27 Jun 10:59:24 11:00:23 11° 61° (ENE) 11:01:22 145.880/145.840
HO-68 27 Jun 10:59:48 11:04:16 18° 306° (NW) 11:08:44 435.675
Tancredo 1 27 Jun 11:09:09 11:10:31 12° 356° (N) 11:11:51 437.200
AO-73 27 Jun 11:10:21 11:13:39 21° 294° (WNW) 11:16:54 145.935
TIGRISAT 27 Jun 11:13:34 11:17:54 40° 263° (W) 11:22:19 435.000
EO-79 27 Jun 11:21:12 11:23:58 17° 65° (ENE) 11:26:44 145.935-145.965
EO-88 27 Jun 11:23:09 11:26:49 88° 99° (E) 11:30:27 145.990 - 145.960
DUCHIFAT 1 27 Jun 11:32:38 11:35:32 18° 66° (ENE) 11:38:27 145.980
Oscar 11 27 Jun 11:35:49 11:38:14 15° 296° (WNW) 11:40:39 .
AIST 2D 27 Jun 11:40:06 11:43:33 51° 74° (ENE) 11:47:00 435.315
LO-87 27 Jun 11:40:18 11:42:42 17° 93° (E) 11:45:05 145.935 - 145.965
NANOSAT C BR1 27 Jun 11:41:36 11:45:04 25° 68° (ENE) 11:48:33 145.865
ISS 27 Jun 11:51:03 11:52:51 14° 357° (N) 11:54:39 437.550
UNISAT 6 27 Jun 11:58:41 12:01:03 14° 270° (W) 12:03:26 437.425
FO-29 27 Jun 12:03:24 12:07:22 17° 274° (W) 12:11:38 435.910
PCSat 27 Jun 12:04:55 12:10:04 47° 113° (ESE) 12:15:16 145.827
POLYITAN 1 27 Jun 12:20:18 12:24:33 75° 74° (ENE) 12:28:51 437.675
DELFI C3 27 Jun 12:29:21 12:30:54 12° 296° (WNW) 12:32:27 145.870
QB50P2 27 Jun 12:31:17 12:35:32 75° 259° (WSW) 12:39:49 145.880/145.840
BUGSAT 1 27 Jun 12:34:00 12:37:24 25° 68° (ENE) 12:40:50 437.445
ESTCUBE 1 27 Jun 12:35:07 12:39:25 45° 99° (E) 12:43:42 437.505/2401.250
SPROUT 27 Jun 12:36:10 12:37:23 11° 90° (E) 12:38:37 437.525
Oscar 19 27 Jun 12:41:45 12:44:45 16° 61° (ENE) 12:47:44 437.125/150
Tancredo 1 27 Jun 12:44:58 12:47:01 16° 16° (NNE) 12:49:05 437.200
EO-79 27 Jun 12:55:19 12:59:22 43° 261° (W) 13:03:28 145.935-145.965
DUCHIFAT 1 27 Jun 13:06:55 13:10:53 40° 262° (W) 13:14:54 145.980
LO-87 27 Jun 13:12:58 13:16:11 30° 289° (WNW) 13:19:22 145.935 - 145.965
SO-50 27 Jun 13:16:19 13:17:32 11° 107° (ESE) 13:18:45 436.795
NANOSAT C BR1 27 Jun 13:17:01 13:20:40 28° 264° (W) 13:24:20 145.865
ISS 27 Jun 13:27:45 13:30:17 20° 18° (NNE) 13:32:49 437.550
PCSat 27 Jun 13:49:05 13:53:40 27° 311° (NW) 13:58:18 145.827
Gurwin Techsat 1B 27 Jun 13:49:12 13:54:08 40° 69° (ENE) 13:59:05 435.225
VELOX 1 27 Jun 14:04:02 14:08:29 85° 282° (WNW) 14:12:55 145.980
BUGSAT 1 27 Jun 14:09:07 14:12:39 27° 264° (W) 14:16:13 437.445
SPROUT 27 Jun 14:09:25 14:13:42 64° 286° (WNW) 14:17:56 437.525
ESTCUBE 1 27 Jun 14:12:50 14:15:52 18° 295° (WNW) 14:18:53 437.505/2401.250
50 SAT 27 Jun 14:15:36 14:19:00 65° 101° (ESE) 14:22:23 437.505
DX 1 27 Jun 14:16:58 14:21:08 42° 99° (E) 14:25:17 434.975-435.025
Oscar 19 27 Jun 14:18:21 14:23:28 69° 257° (WSW) 14:28:37 437.125/150
Tancredo 1 27 Jun 14:20:00 14:23:02 71° 35° (NE) 14:26:04 437.200
AO-7 27 Jun 14:20:35 14:26:58 25° 53° (NE) 14:33:22 .
UKube-1 27 Jun 14:29:50 14:33:53 38° 99° (E) 14:37:56 .
SO-50 27 Jun 14:52:47 14:57:20 80° 303° (WNW) 15:01:53 436.795
ITAMSAT 1 27 Jun 15:01:26 15:05:38 26° 65° (ENE) 15:09:52 435.822/435.867
ISS 27 Jun 15:03:50 15:07:09 89° 161° (SSE) 15:10:26 437.550
BEESAT 27 Jun 15:11:25 15:11:54 10° 89° (E) 15:12:24 436.000
Gurwin Techsat 1B 27 Jun 15:29:49 15:34:11 26° 266° (W) 15:38:33 435.225
DX 1 27 Jun 15:53:59 15:57:00 18° 295° (WNW) 16:00:00 434.975-435.025
Tancredo 1 27 Jun 15:57:11 15:58:12 11° 230° (SW) 15:59:14 437.200
MOZHAYETS 4 27 Jun 15:57:50 16:01:21 22° 94° (E) 16:04:50
UKube-1 27 Jun 16:06:33 16:09:38 19° 295° (WNW) 16:12:43 .
AO-7 27 Jun 16:10:33 16:18:52 79° 252° (WSW) 16:27:17 .
SO-50 27 Jun 16:36:22 16:38:31 13° 323° (NW) 16:40:42 436.795
ITUPSAT 1 27 Jun 16:36:56 16:41:46 81° 103° (ESE) 16:46:32 437.325
ITAMSAT 1 27 Jun 16:40:00 16:44:52 41° 261° (W) 16:49:48 435.822/435.867
BEESAT 27 Jun 16:45:27 16:50:15 81° 285° (WNW) 16:55:01 436.000
CUBESAT XI-V 27 Jun 16:45:47 16:47:47 13° 90° (E) 16:49:47 437.345
DOVE 4 27 Jun 17:05:13 17:07:36 15° 63° (ENE) 17:10:03 437.250
KKS-1 27 Jun 17:15:59 17:18:55 17° 93° (E) 17:21:51 437.445
MOZHAYETS 4 27 Jun 17:34:24 17:38:36 36° 290° (WNW) 17:42:46
STARS 27 Jun 17:40:13 17:42:11 13° 91° (E) 17:44:08 437.465
NUDT-PHONESAT 27 Jun 17:55:13 17:57:31 16° 67° (ENE) 17:59:50 437.300
HO-68 27 Jun 17:55:26 17:58:57 14° 51° (NE) 18:02:28 435.675
CUTE-I 27 Jun 17:59:43 18:04:15 29° 66° (ENE) 18:08:50 437.470
AO-7 27 Jun 18:08:34 18:12:50 15° 271° (W) 18:17:09 .
XW-2F 27 Jun 18:16:34 18:20:03 35° 72° (ENE) 18:23:33 145.980 - 146.000
ITUPSAT 1 27 Jun 18:17:03 18:18:53 12° 300° (WNW) 18:20:43 437.325
CUBESAT XI-V 27 Jun 18:21:01 18:25:34 63° 286° (WNW) 18:30:05 437.345
XW-2D 27 Jun 18:22:00 18:25:39 44° 73° (ENE) 18:29:20 145.860 - 145.880
XW-2B 27 Jun 18:30:57 18:34:43 56° 75° (ENE) 18:38:29 145.730 - 145.750
LilacSat-2 27 Jun 18:32:56 18:36:45 64° 75° (ENE) 18:40:35 437.200
CUTE 1.7 + AOD 2 27 Jun 18:38:29 18:39:55 12° 63° (ENE) 18:41:20 437.475
DOVE 4 27 Jun 18:40:51 18:44:52 48° 261° (W) 18:49:03 437.250
XW-2C 27 Jun 18:46:29 18:50:19 90° 263° (W) 18:54:10 145.795 - 145.815
KKS-1 27 Jun 18:51:24 18:55:41 45° 289° (WNW) 18:59:57 437.445
KAITUO 1B 27 Jun 18:54:55 18:58:42 88° 78° (ENE) 19:02:29 145.475/437.950
CUBEBUG 2 27 Jun 19:12:01 19:14:50 16° 63° (ENE) 19:17:41 437.445
STARS 27 Jun 19:14:30 19:18:53 59° 287° (WNW) 19:23:14 437.465
NUDT-PHONESAT 27 Jun 19:27:39 19:31:07 35° 262° (W) 19:34:36 437.300
HO-68 27 Jun 19:38:16 19:45:24 71° 71° (ENE) 19:52:34 435.675
CUTE-I 27 Jun 19:39:17 19:44:09 36° 263° (W) 19:49:05 437.470
UWE-3 27 Jun 19:40:20 19:43:32 19° 65° (ENE) 19:46:47 435.000/436.395/437.385
XW-2A 27 Jun 19:41:04 19:44:13 35° 73° (ENE) 19:47:24 145.665 - 145.685
SEEDS 27 Jun 19:49:13 19:53:10 42° 72° (ENE) 19:57:08 437.485
STRAND 1 27 Jun 19:51:20 19:55:00 19° 93° (E) 19:58:39 437.568
XW-2F 27 Jun 19:51:57 19:54:17 16° 267° (W) 19:56:39 145.980 - 146.000
RS-15 27 Jun 19:55:34 20:05:13 29° 102° (ESE) 20:14:59 29.354- 29.394
XW-2D 27 Jun 19:58:23 20:00:04 12° 269° (W) 20:01:45 145.860 - 145.880
CUTE 1.7 + AOD 2 27 Jun 20:10:57 20:15:11 67° 260° (W) 20:19:25 437.475
AO-85 27 Jun 20:28:23 20:32:17 44° 118° (ESE) 20:36:03 145.980
AO-73 27 Jun 20:28:41 20:32:36 29° 69° (ENE) 20:36:34 145.935
AAUSAT CUBESAT 2 27 Jun 20:32:54 20:36:57 61° 75° (ENE) 20:41:02 437.432
BEESAT 3 27 Jun 20:40:41 20:44:17 34° 115° (ESE) 20:47:57 437.485
CUBEBUG 2 27 Jun 20:46:24 20:50:55 57° 260° (W) 20:55:36 437.445
PCSat 27 Jun 20:52:37 20:57:44 39° 53° (NE) 21:02:47 145.827
Oscar 11 27 Jun 20:52:51 20:56:53 39° 71° (ENE) 21:00:56 .
ZACube-1 27 Jun 21:04:25 21:08:58 78° 76° (ENE) 21:13:35 437.345
